Калининабад

Tajikistan     39˚45′00″N   69˚07′58″E
temp.,
°C
wind,
m/s
gust,
m/s
humid.,
%
clouds,
%
prec.,
mm/h
press.,
hPa
HPBL,
m
28 november, sat
sat2823:00+3˚ssw3434100 0.0 102526
02:00+2˚wsw2452100 0.0 102761
05:00−4˚wnw1296100 1.4 1033121
08:00−4˚se1195100 6.3 103872
11:00−3˚nnw3395100 8.4 1041240
14:00−3˚n339381 0.1 1040233
17:00−5˚nne139481 0.3 1041142
20:00−5˚ese127879 0.1 104125
29 november, sun
sun2923:00−6˚sse225040 0.1 104026
02:00−6˚sse22440 0.0 103824
05:00−5˚sse22350 0.0 103823
08:00−4˚sse22300 0.0 103723
11:00ne126320 0.0 103564
14:00−1˚nne118567 0.0 103373
17:00−4˚ese117384 0.0 103321
20:00−3˚sse2246100 0.0 103322
30 november, mon
mon3023:00−3˚sse223687 0.0 103323
02:00−3˚s33280 0.0 103324
05:00−2˚s43240 0.0 103125
08:00−2˚s442412 0.0 103126
11:00+3˚sse225556 0.0 102934
14:00+3˚e127382 0.0 102633
17:00+1˚se224691 0.0 102523
20:00+2˚s3338100 0.0 102526
1 december, tue
tue123:00+2˚s3342100 0.0 102430
02:00+2˚s2247100 0.0 102427
05:00+2˚s2252100 0.1 102427
08:00+1˚ssw116393 0.0 102429
11:00+2˚ene118994 0.4 102553
14:00+2˚e129186 0.1 102481
17:00e118472 0.1 102622
20:00ssw11700 0.0 102727
2 december, wed
wed223:00s22610 0.0 102830
02:00+1˚s33584 0.0 102829
05:00+1˚s335642 0.0 102829
08:00+2˚ssw335693 0.0 102829
11:00+5˚n127267 0.0 102750
14:00+4˚n117670 0.0 102583
17:00+1˚e127785 0.0 102522
20:00+1˚s226985 0.0 102530